Le nostre stazioni meteo in Italia

Pubblicità
Il mio iltempo24.it
Capo Mele, Italia (16153): Temperatura & dewpoint: 30.05.2020 20:00:00 - 05.06.2020 20:00:00 (CEST)Capo Mele, Italia (16153): velocità del vento: 30.05.2020 20:00:00 - 05.06.2020 20:00:00 (CEST)Capo Mele, Italia (16153): direzione del vento: 30.05.2020 20:00:00 - 05.06.2020 20:00:00 (CEST)Capo Mele, Italia (16153): reduced air pressure: 30.05.2020 20:00:00 - 05.06.2020 20:00:00 (CEST)Capo Mele, Italia (16153): visibility: 30.05.2020 20:00:00 - 05.06.2020 20:00:00 (CEST)Capo Mele, Italia (16153): ore di luce: 30.05.2020 20:00:00 - 05.06.2020 20:00:00 (CEST)
Data & Tempo tt [°C] td [°C] ff [km/h] ff [kn] dd ppp [hPa] vv [km] sd [min]
05.06.2020 20:00:00 20,2 14,8 5 3 SSE 1000,9 35 60
05.06.2020 19:00:00 20,4 15,2 5 3 SSE 1000,4 35 60
05.06.2020 18:00:00 20,4 15,6 5 3 SSE 1000,1 35 60
05.06.2020 17:00:00 20,6 15,6 16 9 SSO 999,7 35 60
05.06.2020 16:00:00 21,8 17,6 22 12 SSO 999,4 35 60
05.06.2020 15:00:00 20,6 15,8 22 12 SSO 998,8 35 60
05.06.2020 14:00:00 21,4 16,6 21 11 SO 998,4 35 60
05.06.2020 13:00:00 20,8 16,0 21 11 SO 998,1 35 60
05.06.2020 12:00:00 20,2 14,3 15 8 SO 997,2 35 60
05.06.2020 11:00:00 20,2 14,1 11 6 S 996,9 35 60
05.06.2020 10:00:00 19,8 13,7 4 2 O 995,9 35 60
05.06.2020 09:00:00 17,6 13,7 11 6 NNE 995,7 30 48
05.06.2020 08:00:00 16,0 14,4 11 6 NNE 995,4 25 -
05.06.2020 07:00:00 15,6 14,8 9 5 NNE 994,8 20 -
05.06.2020 06:00:00 15,8 15,0 11 6 NE 994,9 15 -
05.06.2020 05:00:00 15,2 14,6 18 10 NNE 995,5 15 -
05.06.2020 04:00:00 15,2 14,7 22 12 NNE 995,5 15 -
05.06.2020 03:00:00 15,6 15,1 9 5 ENE 995,6 15 -
05.06.2020 02:00:00 16,0 14,7 8 4 ENE 995,5 12 -
05.06.2020 01:00:00 16,0 14,0 4 2 NNE 995,6 12 -
05.06.2020 00:00:00 16,2 14,5 5 3 NNO 995,5 10 -
04.06.2020 23:00:00 16,2 15,6 9 5 O 995,5 10 -
04.06.2020 22:00:00 16,0 15,4 21 11 OSO 995,5 10 -
04.06.2020 21:00:00 16,0 15,0 21 11 OSO 995,5 10 0
04.06.2020 20:00:00 16,2 15,4 8 4 NNO 995,6 10 0
04.06.2020 19:00:00 16,0 15,4 16 9 NNE 996,5 4,0 0
04.06.2020 18:00:00 15,0 14,4 18 10 NNE 997,8 0,1 0
04.06.2020 17:00:00 15,0 14,4 18 10 NNE 998,5 0,1 0
04.06.2020 16:00:00 15,0 15,0 21 11 NNE 999,7 0,1 0
04.06.2020 15:00:00 15,0 15,0 11 6 NNE 1000,7 0,1 0
04.06.2020 14:00:00 15,2 15,0 9 5 OSO 1001,0 4,0 0
04.06.2020 13:00:00 15,2 15,0 11 6 OSO 1001,6 4,0 0
04.06.2020 12:00:00 15,0 14,2 9 5 ONO 1001,4 5 0
04.06.2020 11:00:00 15,0 14,4 22 12 OSO 1001,3 6 0
04.06.2020 10:00:00 15,8 15,3 35 19 SSO 1001,7 6 0
04.06.2020 09:00:00 15,2 15,0 21 11 OSO 1001,7 6 0
04.06.2020 08:00:00 15,0 14,7 24 13 OSO 1001,8 6 0
04.06.2020 07:00:00 15,0 14,2 16 9 SO 1001,9 10 -
04.06.2020 06:00:00 17,2 16,7 34 18 OSO 1001,6 10 -
04.06.2020 05:00:00 17,6 17,0 35 19 OSO 1002,6 10 -
04.06.2020 04:00:00 17,8 17,3 39 21 SO 1003,5 10 -
04.06.2020 03:00:00 17,8 17,0 42 23 OSO 1003,6 10 -
04.06.2020 02:00:00 18,0 17,7 31 17 OSO 1004,7 8 -
04.06.2020 01:00:00 18,0 18,0 34 18 OSO 1004,7 8 -
04.06.2020 00:00:00 18,0 18,0 39 21 SO 1005,4 20 -
03.06.2020 23:00:00 18,0 18,0 37 20 SO 1004,7 20 -
03.06.2020 22:00:00 18,2 18,0 44 24 OSO 1004,5 20 -
03.06.2020 21:00:00 18,6 18,4 52 28 SO 1004,7 20 0
03.06.2020 20:00:00 18,8 18,0 44 24 OSO 1004,6 20 12
03.06.2020 19:00:00 19,8 17,8 48 26 SO 1005,5 20 6
03.06.2020 18:00:00 19,8 18,3 46 25 OSO 1004,7 20 30
03.06.2020 17:00:00 20,8 18,0 52 28 OSO 1006,3 20 30
03.06.2020 16:00:00 21,0 18,0 52 28 OSO 1006,6 20 48
03.06.2020 15:00:00 21,0 17,4 46 25 OSO 1007,7 20 60
03.06.2020 14:00:00 21,8 18,2 42 23 SO 1008,4 20 48
03.06.2020 13:00:00 22,4 17,8 28 15 SO 1009,3 20 60
03.06.2020 12:00:00 22,8 18,5 9 5 S 1009,1 25 60
03.06.2020 11:00:00 21,0 16,8 13 7 ENE 1010,1 25 60
03.06.2020 10:00:00 20,0 16,7 16 9 NE 1009,8 25 60
03.06.2020 09:00:00 17,8 15,8 15 8 NE 1010,3 25 60
03.06.2020 08:00:00 17,0 15,4 15 8 NNE 1010,1 20 -
03.06.2020 07:00:00 17,0 14,7 13 7 NNE 1010,1 20 -
03.06.2020 06:00:00 17,2 14,8 18 10 NNE 1010,7 20 -
03.06.2020 05:00:00 17,4 15,4 18 10 N 1010,8 20 -
03.06.2020 04:00:00 17,4 16,6 18 10 NNE 1011,6 20 -
03.06.2020 03:00:00 17,8 17,8 21 11 NNE 1011,8 20 -
03.06.2020 02:00:00 17,8 17,8 28 15 NNE 1012,2 20 -
03.06.2020 01:00:00 18,0 17,2 26 14 NNE 1012,2 20 -
03.06.2020 00:00:00 18,0 17,0 34 18 NNE 1011,8 20 -
02.06.2020 23:00:00 18,2 17,2 29 16 NNE 1011,7 20 -
02.06.2020 22:00:00 18,4 17,6 9 5 O 1010,7 30 -
02.06.2020 21:00:00 19,2 17,0 15 8 OSO 1010,6 30 0
02.06.2020 20:00:00 20,4 18,7 37 20 OSO 1010,4 30 48
02.06.2020 19:00:00 21,0 18,2 41 22 OSO 1011,4 30 60
02.06.2020 18:00:00 21,8 17,4 42 23 OSO 1011,7 30 60
02.06.2020 17:00:00 22,0 17,4 42 23 OSO 1012,7 30 60
02.06.2020 16:00:00 22,0 16,7 37 20 SO 1013,0 20 60
02.06.2020 15:00:00 21,0 18,6 37 20 SO 1013,6 20 60
02.06.2020 14:00:00 21,0 18,2 29 16 SO 1014,6 20 60
02.06.2020 13:00:00 19,8 17,8 29 16 SO 1015,0 20 60
02.06.2020 12:00:00 19,8 19,0 22 12 SSO 1015,6 20 60
02.06.2020 11:00:00 19,0 18,0 16 9 SSO 1015,8 20 30
02.06.2020 10:00:00 19,0 18,5 15 8 SSO 1015,9 20 0
02.06.2020 09:00:00 18,8 18,2 8 4 SO 1015,9 20 0
02.06.2020 08:00:00 18,2 17,5 0 0 N 1015,9 20 0
02.06.2020 07:00:00 17,0 16,5 5 3 ENE 1016,0 20 -
02.06.2020 06:00:00 17,0 16,4 2 1 ENE 1016,4 20 -
02.06.2020 05:00:00 17,0 16,0 8 4 E 1016,9 20 -
02.06.2020 04:00:00 17,4 16,8 8 4 NE 1017,0 20 -
02.06.2020 03:00:00 17,8 16,8 15 8 NNE 1017,0 20 -
02.06.2020 02:00:00 18,0 17,0 15 8 NNE 1017,0 20 -
02.06.2020 01:00:00 18,6 15,1 22 12 NNE 1016,9 20 -
02.06.2020 00:00:00 19,4 15,9 9 5 NE 1016,3 20 -
01.06.2020 23:00:00 20,0 14,4 15 8 NE 1016,2 20 -
01.06.2020 22:00:00 19,4 15,5 5 3 O 1016,1 20 -
01.06.2020 21:00:00 20,4 14,7 16 9 OSO 1016,0 20 -
01.06.2020 20:00:00 21,2 16,4 15 8 OSO 1016,2 20 24
01.06.2020 19:00:00 21,4 17,0 16 9 OSO 1016,7 20 60
01.06.2020 18:00:00 22,8 15,1 18 10 OSO 1016,7 20 60
01.06.2020 17:00:00 22,0 16,3 16 9 SO 1016,9 30 48
01.06.2020 16:00:00 22,0 16,1 21 11 SO 1017,1 30 60
01.06.2020 15:00:00 22,0 17,6 18 10 SO 1017,2 30 60
01.06.2020 14:00:00 22,0 17,6 18 10 OSO 1017,4 30 60
01.06.2020 13:00:00 21,0 18,0 16 9 SO 1017,6 30 60
01.06.2020 12:00:00 21,0 17,0 11 6 SO 1017,7 30 60
01.06.2020 11:00:00 21,0 17,4 8 4 ESE 1017,4 30 60
01.06.2020 10:00:00 20,0 16,0 9 5 NE 1017,0 30 60
01.06.2020 09:00:00 19,0 16,0 16 9 NNE 1016,8 30 60
01.06.2020 08:00:00 16,4 13,9 18 10 NE 1016,7 25 12
01.06.2020 07:00:00 16,0 14,4 13 7 NNE 1016,4 25 -
01.06.2020 06:00:00 16,0 15,4 13 7 N 1016,3 25 -
01.06.2020 05:00:00 16,0 14,7 15 8 NNE 1016,3 35 -
01.06.2020 04:00:00 17,2 15,2 13 7 N 1016,0 35 -
01.06.2020 03:00:00 16,8 13,7 18 10 N 1016,0 35 -
01.06.2020 02:00:00 17,0 13,1 13 7 N 1015,9 35 -
01.06.2020 01:00:00 17,0 12,5 8 4 ENE 1015,8 35 -
01.06.2020 00:00:00 17,2 15,2 8 4 NNE 1015,7 35 -
31.05.2020 23:00:00 17,2 15,2 11 6 NNE 1015,2 35 -
31.05.2020 22:00:00 17,8 14,9 0 0 N 1014,8 35 -
31.05.2020 21:00:00 19,0 15,3 21 11 SO 1014,2 30 30
31.05.2020 20:00:00 19,4 15,1 22 12 SO 1014,0 35 60
31.05.2020 19:00:00 20,6 16,2 22 12 SO 1014,5 35 60
31.05.2020 18:00:00 21,8 16,5 21 11 SO 1014,6 35 60
31.05.2020 17:00:00 20,8 15,6 24 13 SSO 1015,2 35 60
31.05.2020 16:00:00 21,2 16,0 24 13 SSO 1015,5 35 60
31.05.2020 15:00:00 21,2 16,0 18 10 SSO 1015,6 35 54
31.05.2020 14:00:00 21,8 15,6 11 6 SSO 1015,6 35 60
31.05.2020 13:00:00 22,0 15,8 9 5 ESE 1015,6 35 60
31.05.2020 12:00:00 20,0 16,2 18 10 NE 1015,7 35 48
31.05.2020 11:00:00 20,4 15,0 8 4 ESE 1015,7 35 36
31.05.2020 10:00:00 17,8 13,9 11 6 ENE 1015,9 30 18
31.05.2020 09:00:00 17,2 13,3 8 4 NE 1015,8 30 0
31.05.2020 08:00:00 16,8 12,7 4 2 NE 1015,4 20 -
31.05.2020 07:00:00 16,8 12,1 4 2 ENE 1015,1 20 -
31.05.2020 06:00:00 16,8 11,3 2 1 NNE 1015,0 20 -
31.05.2020 05:00:00 17,0 11,5 4 2 SSO 1014,9 20 -
31.05.2020 04:00:00 17,0 12,7 9 5 NE 1015,1 25 -
31.05.2020 03:00:00 17,0 12,7 9 5 NNE 1015,4 25 -
31.05.2020 02:00:00 17,6 11,0 9 5 ENE 1015,4 25 -
31.05.2020 01:00:00 17,6 10,2 9 5 NE 1014,9 25 -
31.05.2020 00:00:00 17,0 10,6 11 6 ESE 1014,9 25 -
30.05.2020 23:00:00 17,0 9,9 13 7 O 1014,9 25 -
30.05.2020 22:00:00 17,8 11,6 13 7 OSO 1014,3 25 -
30.05.2020 21:00:00 18,8 12,3 22 12 OSO 1014,1 30 0
30.05.2020 20:00:00 19,6 12,6 24 13 OSO 1014,1 30 60

tt = Temperatura
td = dewpoint
ff = velocità del vento
dd = direzione del vento
ppp = reduced air pressure
vv = visibility
sd = ore di luce

Stazioni seguenti

WeatherPro
AMSI
MeteoEarth